Regional Weather Roundup
Issued by NWS

Home | Current Version | Previous Version | Graphics & Text | Print | Product List | Glossary On
Versions: 1 2 3 4 5 6 7 8 9 10 11 12 13 14 15 16 17 18 19 20 21 22 23 24 25 26 27 28 29 30 31 32 33 34 35 36 37 38 39 40 41 42 43 44 45 46 47 48 49 50
000
ASUS43 KOAX 301502
RWRNE

WEATHER ROUNDUP FOR NEBRASKA
NATIONAL WEATHER SERVICE OMAHA NE
1000 AM CDT SAT APR 30 2016

NOTES: SATELLITE DATA IS BEING USED TO AUGMENT CLOUD COVER ABOVE
       12000 FEET.
       "FAIR" INDICATES FEW OR NO CLOUDS BELOW 12,000 FEET WITH NO
       SIGNIFICANT WEATHER AND/OR OBSTRUCTIONS TO VISIBILITY.

  * THESE STATIONS DO NOT REPORT WEATHER SUCH AS RAIN...SNOW OR FOG.

NEZ001>004-019>022-054>056-301600-
NEBRASKA PANHANDLE

CITY           SKY/WX    TMP DP  RH WIND       PRES   REMARKS
SCOTTSBLUFF    MIX PCPN  35  31  85 N20       29.94R WCI  24
ALLIANCE       LGT SNOW  33  33 100 N24G33    29.89R VSB 1   WCI  20
CHADRON        LGT RAIN  39  37  92 NE14G29   30.00S FOG     WCI  31
KIMBALL        LGT SNOW  33  32  96 N16       29.90R WCI  22
SIDNEY         LGT SNOW  33  31  92 N20       29.89R VSB 3/4 WCI  21
$$

NEZ057>060-069>072-079>082-301600-
SOUTHWEST NEBRASKA

CITY           SKY/WX    TMP DP  RH WIND       PRES   REMARKS
NORTH PLATTE   LGT SNOW  34  32  92 N16       29.81S FOG     WCI  24
IMPERIAL       FLURRIES  34  32  92 N14       29.82S WCI  25
LEXINGTON      DRIZZLE   40  38  92 N13       29.77S WCI  33
MCCOOK         MIX PCPN  37  35  92 N13       29.80R FOG     WCI  29
$$

NEZ005>010-023>029-035>040-094-301600-
NORTH CENTRAL NEBRASKA

CITY           SKY/WX    TMP DP  RH WIND       PRES   REMARKS
VALENTINE      LGT RAIN  39  36  89 NE18G29   29.92S WCI  30
AINSWORTH      SNOW      33  32  98 NE14      29.90R VSB 1/2 WCI  23
BROKEN BOW     MIX PCPN  36  34  92 N18       29.78S FOG     WCI  26
O`NEILL        RAIN      41  39  93 NE22      29.85F
ORD            LGT RAIN  41  39  93 NE15      29.77S FOG
$$

NEZ041-046>049-061>064-073>077-083>087-301600-
SOUTH CENTRAL NEBRASKA

CITY           SKY/WX    TMP DP  RH WIND       PRES   REMARKS
GRAND ISLAND   LGT RAIN  43  41  93 NE16      29.74R FOG
AURORA         CLOUDY    44  43  99 NE14      29.72S FOG
HASTINGS       LGT RAIN  43  42  97 NE14      29.72S FOG
KEARNEY *      CLOUDY    43  39  87 N16       29.75R
YORK           PTSUNNY   45  43  93 NE14      29.71S FOG
$$

NEZ011>018-030>034-042>045-301600-
NORTHEAST NEBRASKA

CITY           SKY/WX    TMP DP  RH WIND       PRES   REMARKS
NORFOLK        RAIN      42  40  92 NE17      29.75F FOG
ALBION         LGT RAIN  42  40  93 NE14      29.77S
BLAIR          CLOUDY    45  44  95 NE14G20   29.70F FOG
COLUMBUS *     CLOUDY    43  36  75 NE16      29.74S
FREMONT        CLOUDY    44  44  98 NE8       29.73F
TEKAMAH        HVY RAIN  45  43  93 E14       29.74F FOG
$$

NEZ050>053-065>068-078-088>093-301600-
SOUTHEAST NEBRASKA

CITY           SKY/WX    TMP DP  RH WIND       PRES   REMARKS
LINCOLN        LGT RAIN  47  45  93 NE13      29.70F FOG
OMAHA EPPLEY   LGT RAIN  47  44  90 E9        29.71F
BEATRICE       CLOUDY    48  47  97 NE8       29.67R FOG
FALLS CITY     CLOUDY    53  51  93 E12       29.64F
NEBRASKA CITY  CLOUDY    49  49 100 E9        29.67S
$$

NEZ044-045-051>053-067-301600-
OMAHA AREA

CITY           SKY/WX    TMP DP  RH WIND       PRES   REMARKS
OMAHA EPPLEY   LGT RAIN  47  44  90 E9        29.71F
BLAIR          CLOUDY    45  44  95 NE14G20   29.70F FOG
FREMONT        CLOUDY    44  44  98 NE8       29.73F
WAHOO          CLOUDY    46  44  94 NE10      29.71S FOG
$$




USA.gov is the U.S. government's official web portal to all federal, state and local government web resources and services.